Wind_Speed
30 31 29 31 30 29 26 24 22 20 18 16 14 13 12 11 11 11 10 10 10 10 9 9 8 7 7 6 5 4 3 3 2 1 1 2 2 3 4 4 5 5 6
32 30 31 31 33 33 31 27 26 24 22 20 19 17 15 15 14 13 12 12 11 11 11 10 9 8 8 7 6 5 4 4 3 3 3 4 4 5 6 6 7 8 8
36 34 33 33 33 34 33 31 30 28 26 24 22 21 20 18 18 17 15 14 13 13 12 11 11 10 9 8 7 6 6 6 6 6 6 6 7 7 8 9 9 10 10
39 38 36 35 34 33 33 33 31 31 30 28 26 24 23 22 22 21 19 18 16 16 15 14 13 12 11 10 10 9 9 8 8 9 9 9 9 10 10 11 11 12 12
41 40 38 37 35 33 32 32 31 32 31 31 30 28 27 26 26 25 23 21 20 19 18 17 16 15 14 14 13 12 11 11 11 11 12 12 12 12 12 13 13 14 14
41 41 39 39 37 34 33 32 32 33 32 32 32 31 31 30 29 28 27 25 23 22 21 20 19 18 17 16 16 15 14 14 14 14 14 14 14 15 15 15 15 16 16
41 41 41 40 37 36 34 34 33 33 32 32 32 32 32 32 32 31 30 28 27 25 24 22 21 20 20 19 18 18 17 17 16 16 17 17 17 17 17 17 18 18 18
40 41 41 40 38 37 36 35 34 33 33 32 31 32 33 33 33 32 32 30 30 29 27 25 24 23 22 21 21 20 20 20 19 19 19 19 19 20 20 20 20 20 20
39 40 39 40 39 38 37 36 36 36 34 33 33 32 33 34 35 34 33 32 31 30 29 28 27 26 25 24 24 23 22 22 22 21 21 21 21 22 22 22 22 22 22
37 38 38 39 38 38 37 36 36 36 35 35 34 34 34 34 35 36 36 35 34 32 31 30 29 28 27 26 26 26 25 24 23 23 23 23 23 23 24 24 24 24 24
34 35 37 38 37 38 38 38 36 36 35 35 35 34 34 35 35 36 36 36 35 33 32 31 31 30 29 28 28 27 26 26 25 25 24 24 24 24 25 25 25 25 25
29 32 34 36 37 37 37 38 38 36 36 35 36 35 35 36 36 36 36 36 35 34 33 33 32 32 30 29 28 28 28 27 26 26 25 25 25 25 26 26 26 26 26
26 29 31 33 35 36 36 37 38 37 37 36 36 35 36 36 35 36 37 37 36 35 33 32 32 32 32 30 29 28 27 27 26 26 26 26 26 26 26 26 26 26 27
20 23 27 30 32 34 35 36 37 37 37 37 37 37 37 38 37 36 37 37 36 36 35 33 32 32 31 30 29 29 28 28 27 26 27 27 27 27 27 27 27 28 28
14 17 21 25 29 32 33 35 36 36 37 37 38 38 38 36 37 38 38 38 37 38 37 35 34 34 33 32 30 30 30 30 29 29 29 28 28 28 28 28 29 29 30
10 13 16 21 24 27 31 34 35 36 36 37 38 38 40 38 36 38 39 40 39 38 37 36 34 34 34 32 32 31 31 30 29 29 29 30 30 30 30 31 31 31 32
8 9 12 16 20 22 26 30 33 34 36 37 38 37 37 38 37 38 39 40 39 38 36 34 34 34 34 33 33 33 32 31 30 30 31 31 31 31 31 31 31 31 31
7 7 7 11 14 17 21 25 27 30 32 35 35 35 36 37 38 37 36 36 37 37 36 34 33 33 32 32 31 31 32 32 31 31 31 30 30 30 30 30 30 29 28
8 5 5 7 10 13 16 20 23 26 29 31 31 32 32 34 36 36 35 34 34 35 35 35 33 32 31 30 30 29 29 28 28 28 28 27 27 28 28 28 27 26 27
10 7 5 5 7 10 12 15 20 23 25 27 28 29 30 32 34 34 33 33 33 33 33 33 33 32 31 31 29 28 28 27 26 26 26 25 25 25 25 25 25 25 25
12 10 8 7 6 8 11 13 16 19 22 24 25 26 27 29 31 31 31 31 31 31 31 31 32 31 31 30 28 27 26 26 25 25 26 25 25 25 24 24 23 22 20
13 12 10 9 8 9 10 12 15 17 20 21 23 24 26 27 28 29 29 29 29 29 29 29 29 29 28 28 27 27 26 26 26 26 26 25 25 24 23 22 20 18 16
16 14 13 11 10 10 10 11 13 16 18 20 21 23 23 25 26 27 27 27 27 28 28 28 28 27 26 26 27 27 26 26 25 24 23 23 23 21 19 18 17 16 15
18 17 15 14 13 11 10 10 11 14 16 18 19 21 22 23 24 25 25 25 26 27 27 27 26 26 24 24 23 23 23 23 23 22 21 21 19 18 17 16 15 15 13
20 19 18 16 15 13 11 9 10 11 13 16 17 18 20 21 22 23 24 24 24 24 24 24 24 23 24 23 22 22 21 21 20 20 19 18 17 17 15 14 14 13 12
22 21 20 19 17 14 11 9 8 8 10 14 16 17 18 20 21 21 22 22 22 22 21 21 21 21 21 21 21 20 20 19 18 18 17 17 16 15 14 14 13 11 10
Wind_Direction
256 254 252 249 246 243 240 238 238 236 234 230 226 224 224 225 225 220 213 211 210 208 205 203 201 200 198 196 195 193 194 196 204 237 272 292 308 312 313 313 307 302 296
257 257 256 255 249 243 238 235 235 235 235 233 230 226 225 228 229 227 224 222 221 220 218 215 214 214 215 214 215 219 225 234 249 267 282 293 303 310 313 313 312 309 306
257 256 257 256 253 246 243 240 237 235 234 233 233 230 228 230 233 231 229 228 227 226 224 223 224 225 226 229 233 239 246 255 264 270 278 286 294 301 305 309 310 309 307
258 258 258 257 257 251 246 244 238 234 234 234 234 233 231 231 233 234 233 231 231 231 231 230 231 232 234 238 243 248 253 260 267 273 278 284 289 294 299 303 306 307 306
257 258 259 258 257 256 253 248 243 237 235 235 233 232 232 232 232 233 235 235 234 234 235 236 237 238 240 243 247 251 256 261 266 272 276 279 284 289 293 297 300 302 303
254 255 256 257 257 256 253 251 250 244 239 236 233 232 232 232 231 232 234 236 236 237 237 239 240 242 243 246 250 253 258 263 267 271 274 277 280 283 287 291 294 296 298
254 253 253 253 254 254 252 251 250 248 242 237 235 233 233 233 232 232 234 236 237 237 238 239 242 244 245 248 251 253 258 262 266 270 272 275 278 279 282 285 288 291 294
253 252 250 250 251 251 251 249 247 247 245 242 239 237 236 236 234 233 234 236 237 238 238 239 241 244 246 248 251 254 257 260 264 268 271 274 275 277 279 281 283 286 288
252 250 248 247 247 248 247 246 246 244 243 243 241 240 238 237 236 236 234 234 235 236 238 240 242 243 246 249 251 253 256 260 264 267 270 272 274 276 277 280 281 283 285
251 248 246 244 244 244 243 243 242 241 241 240 240 240 239 237 237 236 235 234 233 234 236 239 240 241 244 248 251 252 255 259 263 266 269 272 274 275 276 278 280 282 284
251 247 243 241 240 240 239 239 238 237 238 238 238 238 237 236 234 234 234 234 234 233 233 236 238 241 244 247 249 251 254 257 260 264 268 271 273 275 277 279 280 282 283
251 247 242 238 237 236 236 236 236 236 235 236 235 235 236 234 232 231 231 231 232 233 233 234 236 240 243 245 248 251 254 256 259 263 267 270 273 275 277 279 280 281 283
252 247 242 237 234 233 232 232 233 234 233 233 232 232 232 230 231 231 232 230 230 231 231 232 234 236 239 242 246 250 252 256 259 262 266 270 272 275 276 277 279 280 282
253 246 240 235 230 228 228 229 229 230 230 230 229 229 229 230 231 230 230 229 228 229 230 230 231 231 234 238 241 245 250 255 258 261 265 268 271 273 275 276 277 279 281
256 247 238 232 229 228 227 228 227 228 228 228 228 229 229 230 231 232 230 229 229 230 230 231 231 231 231 235 239 243 248 253 256 260 264 267 269 271 273 275 277 279 282
261 250 239 230 228 228 227 227 226 226 226 227 228 229 229 229 231 230 229 229 229 229 230 231 232 232 231 235 238 242 244 249 253 259 262 264 267 270 274 276 278 279 281
284 267 247 238 233 231 230 229 228 229 228 227 229 230 230 229 229 228 227 228 227 227 229 231 232 233 234 237 239 241 244 248 254 258 261 265 267 270 272 275 277 279 280
321 296 264 246 240 236 233 233 232 232 229 228 231 231 230 228 227 226 226 226 227 228 229 230 232 234 235 237 239 241 244 249 254 258 261 264 265 268 271 274 277 277 278
354 328 292 266 249 242 239 235 233 232 230 231 232 230 230 228 226 225 225 226 227 227 228 229 230 233 237 238 239 242 245 250 254 257 259 261 263 267 270 272 274 277 278
4 357 333 291 264 251 246 241 235 233 232 232 233 234 232 229 227 226 226 226 227 227 227 228 231 235 238 240 242 245 247 250 253 255 257 258 262 265 269 270 274 276 278
6 357 345 324 294 272 262 252 244 238 233 230 231 231 231 231 231 232 232 232 231 231 230 231 233 236 238 240 243 245 247 249 251 254 257 258 262 264 267 269 270 272 274
5 359 351 337 318 297 278 263 254 247 242 236 232 233 232 230 230 230 231 231 232 232 232 234 234 235 238 240 241 244 244 246 249 251 254 256 258 260 262 262 263 265 266
4 359 352 343 329 312 294 276 259 251 247 242 238 233 230 229 229 229 229 229 229 230 230 232 234 234 237 239 240 241 242 245 248 250 251 253 253 255 256 257 259 260 263
5 360 353 345 335 322 305 286 267 252 245 239 234 232 231 229 228 228 228 228 228 227 228 229 230 233 233 233 235 237 239 241 242 244 248 247 246 247 249 253 254 255 259
6 1 356 349 342 331 315 296 275 256 243 234 229 228 228 228 227 225 224 223 223 223 224 224 225 227 228 229 230 231 233 235 237 239 239 237 238 240 242 244 246 248 252
9 6 1 356 349 342 329 309 290 263 241 228 222 221 221 220 219 218 217 216 215 215 216 215 216 219 221 222 223 226 227 226 228 228 227 230 232 232 236 238 239 241 246
Height
5884 5884 5885 5886 5888 5889 5891 5893 5895 5896 5897 5898 5899 5900 5901 5902 5903 5904 5905 5906 5906 5907 5908 5909 5909 5910 5911 5911 5912 5913 5913 5914 5914 5915 5915 5916 5916 5916 5917 5917 5917 5917 5917
5877 5878 5879 5880 5881 5882 5883 5886 5889 5891 5893 5895 5896 5897 5899 5900 5901 5902 5903 5904 5905 5906 5907 5908 5909 5909 5910 5911 5912 5912 5913 5913 5914 5914 5915 5915 5916 5916 5916 5916 5916 5916 5916
5869 5871 5872 5873 5873 5875 5877 5879 5882 5885 5887 5890 5892 5893 5895 5897 5898 5899 5901 5902 5903 5904 5906 5907 5907 5908 5909 5910 5911 5911 5912 5913 5913 5913 5914 5914 5914 5915 5915 5915 5915 5914 5914
5860 5862 5864 5865 5866 5867 5869 5872 5875 5878 5881 5883 5886 5888 5891 5893 5894 5896 5897 5899 5901 5902 5903 5905 5906 5907 5908 5909 5909 5910 5911 5911 5912 5912 5913 5913 5913 5913 5913 5913 5913 5913 5912
5851 5853 5856 5857 5859 5861 5863 5865 5867 5870 5873 5876 5879 5882 5885 5888 5890 5892 5894 5895 5897 5899 5900 5902 5903 5904 5905 5906 5907 5908 5909 5909 5910 5910 5911 5911 5911 5911 5911 5911 5911 5910 5910
5840 5843 5846 5848 5851 5854 5856 5858 5860 5863 5866 5869 5872 5875 5879 5882 5885 5887 5889 5891 5893 5895 5897 5898 5900 5901 5902 5904 5905 5905 5906 5907 5907 5908 5908 5908 5908 5909 5909 5908 5908 5908 5907
5829 5833 5836 5838 5841 5845 5848 5850 5852 5855 5858 5861 5865 5868 5872 5875 5879 5881 5883 5885 5887 5890 5892 5894 5896 5897 5899 5900 5901 5902 5903 5903 5904 5905 5905 5905 5905 5905 5905 5905 5905 5905 5904
5818 5822 5825 5829 5832 5836 5839 5842 5844 5847 5850 5853 5857 5860 5864 5868 5871 5874 5877 5880 5882 5884 5886 5889 5891 5893 5894 5896 5897 5898 5899 5900 5900 5901 5901 5901 5902 5902 5901 5901 5901 5901 5900
5806 5810 5814 5818 5822 5826 5830 5833 5836 5840 5842 5846 5849 5853 5856 5860 5864 5867 5870 5873 5876 5878 5881 5883 5885 5887 5889 5890 5892 5893 5894 5895 5896 5896 5897 5897 5897 5897 5897 5897 5897 5896 5896
5795 5798 5802 5806 5811 5815 5819 5823 5827 5830 5834 5838 5841 5845 5849 5852 5856 5859 5862 5866 5869 5872 5875 5877 5879 5881 5883 5885 5886 5888 5889 5890 5891 5892 5892 5892 5892 5893 5893 5892 5892 5891 5891
5784 5787 5791 5795 5799 5804 5809 5813 5817 5821 5825 5829 5833 5836 5840 5844 5847 5851 5855 5858 5862 5865 5868 5871 5873 5875 5877 5879 5881 5882 5883 5885 5886 5886 5887 5887 5887 5887 5887 5887 5887 5886 5885
5775 5777 5780 5784 5789 5793 5798 5803 5807 5811 5816 5820 5824 5828 5831 5835 5839 5843 5847 5850 5854 5858 5861 5864 5867 5869 5870 5872 5874 5876 5877 5879 5880 5881 5881 5882 5882 5882 5882 5882 5881 5881 5880
5766 5768 5771 5775 5779 5783 5788 5793 5797 5802 5806 5810 5815 5819 5823 5827 5830 5834 5838 5842 5846 5850 5853 5857 5860 5862 5864 5866 5868 5869 5871 5872 5874 5875 5876 5876 5876 5876 5876 5876 5875 5875 5874
5759 5760 5762 5766 5769 5774 5779 5783 5788 5792 5796 5801 5805 5809 5813 5818 5822 5825 5830 5833 5837 5842 5846 5849 5852 5855 5858 5860 5861 5863 5865 5866 5867 5869 5869 5870 5870 5870 5870 5870 5869 5869 5868
5754 5754 5756 5758 5762 5766 5770 5774 5778 5782 5787 5791 5796 5799 5804 5808 5812 5817 5821 5825 5829 5833 5838 5841 5844 5848 5850 5853 5855 5857 5859 5860 5861 5862 5863 5864 5864 5864 5864 5863 5863 5862 5861
5750 5750 5751 5752 5755 5758 5761 5765 5770 5774 5778 5782 5786 5790 5795 5799 5803 5807 5812 5816 5820 5825 5829 5833 5836 5839 5843 5845 5848 5850 5852 5853 5854 5856 5856 5857 5857 5857 5857 5857 5856 5855 5854
5748 5748 5748 5749 5750 5752 5755 5759 5762 5766 5770 5774 5778 5781 5785 5790 5795 5799 5803 5807 5812 5816 5820 5824 5828 5832 5835 5838 5840 5843 5845 5846 5848 5849 5850 5850 5850 5850 5850 5850 5849 5848 5847
5747 5746 5745 5746 5747 5748 5750 5753 5755 5758 5762 5766 5769 5773 5777 5781 5786 5790 5794 5799 5803 5808 5812 5816 5820 5824 5827 5830 5833 5836 5838 5840 5841 5841 5843 5843 5844 5843 5843 5843 5842 5841 5841
5747 5745 5744 5744 5744 5745 5746 5748 5750 5752 5755 5758 5761 5765 5769 5773 5778 5782 5786 5790 5795 5799 5804 5809 5813 5816 5820 5823 5826 5828 5831 5832 5833 5835 5836 5836 5837 5837 5837 5836 5836 5835 5834
5747 5745 5744 5743 5742 5742 5743 5744 5745 5747 5749 5752 5755 5758 5761 5765 5770 5774 5778 5783 5787 5792 5796 5801 5805 5809 5812 5815 5818 5821 5823 5825 5827 5828 5829 5830 5830 5830 5830 5830 5830 5829 5829
5748 5746 5743 5742 5740 5740 5739 5739 5740 5742 5743 5746 5748 5751 5755 5758 5762 5766 5771 5775 5780 5785 5789 5793 5798 5801 5805 5808 5811 5814 5816 5818 5820 5822 5823 5823 5824 5824 5824 5825 5825 5824 5823
5748 5745 5743 5740 5738 5737 5736 5735 5735 5736 5738 5740 5742 5745 5748 5751 5755 5760 5764 5769 5773 5778 5782 5786 5791 5794 5798 5801 5804 5807 5810 5812 5814 5816 5816 5817 5818 5819 5819 5819 5819 5819 5819
5748 5745 5742 5739 5736 5734 5732 5731 5731 5731 5732 5733 5736 5739 5742 5745 5749 5753 5757 5762 5767 5772 5776 5781 5784 5788 5791 5794 5797 5800 5803 5805 5807 5809 5810 5811 5812 5813 5814 5814 5815 5815 5815
5748 5744 5740 5737 5733 5730 5728 5727 5726 5726 5727 5728 5730 5733 5736 5739 5743 5748 5752 5756 5761 5766 5770 5775 5778 5782 5785 5788 5792 5795 5797 5799 5801 5803 5805 5806 5807 5808 5809 5810 5811 5811 5811
5748 5743 5739 5735 5731 5727 5724 5723 5722 5721 5722 5723 5725 5728 5731 5734 5738 5742 5747 5752 5756 5760 5764 5769 5773 5776 5780 5783 5786 5790 5792 5794 5796 5798 5800 5801 5803 5804 5805 5806 5807 5807 5807
5748 5743 5738 5732 5728 5724 5721 5719 5717 5717 5717 5718 5721 5723 5726 5730 5733 5737 5742 5747 5752 5756 5760 5764 5768 5772 5775 5778 5782 5785 5787 5790 5792 5794 5796 5798 5799 5801 5802 5803 5803 5804 5804